Girona Airport

Jump to: basic info | weather | frequencies | runways | comments

Related pages: nearby airports | nearby navaids | notams | map

Basic information (top)

Codes: GRO LEGE
Location: lon 41.901001, lat 2.760550, elev 468 ft / 143 m msl
Status: medium_airport
Scheduled airline service: yes
Links: Wikipedia Mobile

Weather (top)

Current conditions (rec'd 2014/10/30 12:30Z):

LEGE 301230Z 03003KT 360V070 8000 FEW015 BKN025 19/15 Q1023

Airport forecast (rec'd 2014/10/30 12:27Z):

TAF LEGE 301100Z 3012/3112 VRB03KT 9999 FEW025 TX24/3013Z TN10/3106Z 
      TEMPO 3014/3018 19008KT PROB40 
      TEMPO 3022/3109 0500 FG VV002

Frequencies (top)

Verify before use: may be inaccurate or out of date.

APP: 120.9 MHz (APP)
GND: 121.7 MHz (GND)
TWR: 118.5 MHz (TWR)

Runways (top)

02/20: 7,874 x 148 ft (2,400 x 45 m) — paved — lighted

Latest comments (top)

No comments yet for Girona Airport

More... (top)

See also NOTAMs and nearby airports and navaids, or visit the Girona Airport page at the main OurAirports website..